This demonstration page uses our WeatherBlox Daily Observations layout. Learn more.

Left ArrowRight Arrow

39.51506, -84.39828

Hourly Observations for May 3, 2015

Temp ( °F °C ) Dew Point ( °F °C ) Humidity (%) Winds ( mph kmh ) Pressure ( in mb ) Visibility ( mi km ) Precip ( " mm )
12:15 am 00:15 Clear 55 12.5 48 8.9 79 79 Calm 30.09 1019 10 16 0.00 0.00
12:35 am 00:35 Clear 55 12.5 48 9 79 79 Calm 30.09 1019 10 16 0.00 0.00
12:55 am 00:55 Clear 53 11.7 46 8 78 78 Calm 30.09 1019 10 16 0.00 0.00
1:15 am 01:15 Clear 52 11 46 8 82 82 Calm 30.09 1019 10 16 0.00 0.00
1:35 am 01:35 Clear 52 11 46 7.9 81 81 Calm 30.09 1019 10 16 0.00 0.00
1:55 am 01:55 Clear 51 10.5 46 7.7 83 83 Calm 30.09 1019 10 16 0.00 0.00
2:15 am 02:15 Clear 50 10.1 45 7.3 83 83 Calm 30.09 1019 10 16 0.00 0.00
2:35 am 02:35 Clear 51 10.3 46 7.6 84 84 Calm 30.09 1019 10 16 0.00 0.00
2:55 am 02:55 Clear 51 10.3 46 7.6 84 84 Calm 30.09 1019 10 16 0.00 0.00
3:15 am 03:15 Clear 49 9.6 45 7 84 84 Calm 30.09 1019 10 16 0.00 0.00
3:35 am 03:35 Clear 49 9.6 45 7.3 86 86 Calm 30.09 1019 10 16 0.00 0.00
3:55 am 03:55 Clear 49 9.6 45 7.2 85 85 Calm 30.09 1019 10 16 0.00 0.00
4:15 am 04:15 Clear 49 9.6 45 7.3 86 86 Calm 30.09 1019 10 16 0.00 0.00
4:35 am 04:35 Clear 49 9.6 45 7.4 86 86 Calm 30.09 1019 10 16 0.00 0.00
4:55 am 04:55 Clear 49 9.6 46 7.5 87 87 Calm 30.09 1019 10 16 0.00 0.00
5:15 am 05:15 Clear with Mist and Fog 49 9.6 46 7.6 87 87 Calm 30.09 1019 5 8 0.00 0.00
5:35 am 05:35 Clear with Mist and Fog 49 9.6 46 7.7 88 88 Calm 30.09 1019 5 8 0.00 0.00
5:55 am 05:55 Clear with Mist and Fog 49 9.6 46 7.7 88 88 Calm 30.12 1020 5 8 0.00 0.00
6:15 am 06:15 Clear with Mist and Fog 49 9.6 46 7.7 88 88 Calm 30.12 1020 2 3 0.00 0.00
6:35 am 06:35 Clear 47 8.2 44 6.5 89 89 Calm 30.12 1020 7 11 0.00 0.00
6:55 am 06:55 Sunny with Mist and Fog 49 9.5 46 7.9 90 90 Calm 30.12 1020 5 8 0.00 0.00
7:15 am 07:15 Sunny with Mist and Fog 49 9.6 46 7.8 89 89 Calm 30.12 1020 5 8 0.00 0.00
7:35 am 07:35 Sunny with Mist and Fog 49 9.6 46 7.7 88 88 Calm 30.12 1020 5 8 0.00 0.00
7:55 am 07:55 Sunny 49 9.6 46 7.6 87 87 Calm 30.15 1021 7 11 0.00 0.00
8:15 am 08:15 Sunny 52 11 48 8.7 86 86 Calm 30.15 1021 7 11 0.00 0.00
8:35 am 08:35 Sunny 55 12.5 49 9.7 83 83 Calm 30.15 1021 7 11 0.00 0.00
8:55 am 08:55 Sunny 55 12.5 50 9.9 84 84 Calm 30.15 1021 7 11 0.00 0.00
9:15 am 09:15 Sunny 57 13.8 51 10.3 80 80 Calm 30.15 1021 10 16 0.00 0.00
9:35 am 09:35 Sunny 60 15.3 51 10.6 74 74 Calm 30.15 1021 10 16 0.00 0.00
9:55 am 09:55 Sunny 63 17 49 9.2 60 60 SSW 3 6 30.12 1020 10 16 0.00 0.00
10:15 am 10:15 Sunny 67 19.3 49 9.6 54 54 SW 3 6 30.12 1020 10 16 0.00 0.00
10:35 am 10:35 Sunny 69 20.8 52 10.9 53 53 Calm 30.12 1020 10 16 0.00 0.00
10:55 am 10:55 Sunny 69 20.8 51 10.7 53 53 WSW 5 7 30.12 1020 10 16 0.00 0.00
11:15 am 11:15 Sunny 71 21.6 49 9.2 45 45 SSW 6 9 30.12 1020 10 16 0.00 0.00
11:35 am 11:35 Sunny 74 23.6 48 8.8 39 39 WSW 8 13 30.12 1020 10 16 0.00 0.00
11:55 am 11:55 Sunny 74 23.6 46 7.6 36 36 S 6 9 30.12 1020 10 16 0.00 0.00
12:15 pm 12:15 Sunny 74 23.6 45 7.2 35 35 SSW 9 15 30.12 1020 10 16 0.00 0.00
12:35 pm 12:35 Sunny 74 23.6 45 7.1 35 35 SSW 8 13 30.12 1020 10 16 0.00 0.00
12:55 pm 12:55 Sunny 75 23.9 45 7 34 34 SW 14 22 30.12 1020 10 16 0.00 0.00
1:15 pm 13:15 Partly Cloudy 77 25.1 43 6.1 30 30 SSW 12 19 30.09 1019 10 16 0.00 0.00
1:35 pm 13:35 Sunny 77 25.1 44 6.5 30 30 SSW 12 19 30.09 1019 10 16 0.00 0.00
1:55 pm 13:55 Sunny 77 25.1 42 5.6 29 29 SW 9 15 30.09 1019 10 16 0.00 0.00
2:15 pm 14:15 Partly Cloudy 77 25.1 40 4.2 26 26 WSW 9 15 30.09 1019 10 16 0.00 0.00
2:35 pm 14:35 Sunny 77 25.1 40 4.4 26 26 SW 9 15 30.09 1019 10 16 0.00 0.00
2:55 pm 14:55 Sunny 77 25.1 40 4.4 26 26 SW 9 15 30.09 1019 10 16 0.00 0.00
3:15 pm 15:15 Sunny 77 25.2 39 4 25 25 WSW 12 19 30.06 1018 10 16 0.00 0.00
3:35 pm 15:35 Sunny 77 25.1 41 4.8 27 27 SW 15 24 30.06 1018 10 16 0.00 0.00
3:55 pm 15:55 Partly Cloudy 78 25.6 41 5.1 27 27 S 9 15 30.06 1018 10 16 0.00 0.00
4:15 pm 16:15 Partly Cloudy 79 25.9 41 5.2 26 26 SW 13 20 30.06 1018 10 16 0.00 0.00
4:35 pm 16:35 Partly Cloudy 78 25.5 41 4.8 26 26 SW 8 13 30.06 1018 10 16 0.00 0.00
4:55 pm 16:55 Partly Cloudy 79 26.3 43 6 27 27 SW 10 17 30.03 1017 10 16 0.00 0.00
5:15 pm 17:15 Sunny 77 25.1 40 4.5 26 26 S 10 17 30.03 1017 10 16 0.00 0.00
5:35 pm 17:35 Sunny 78 25.8 42 5.7 28 28 SW 7 11 30.03 1017 10 16 0.00 0.00
5:55 pm 17:55 Partly Cloudy 77 25.1 41 5 27 27 SSW 12 19 30.03 1017 10 16 0.00 0.00
6:15 pm 18:15 Partly Cloudy 77 25.1 43 6.3 30 30 SSW 7 11 30.03 1017 10 16 0.00 0.00
6:35 pm 18:35 Sunny 77 25.1 42 5.8 29 29 SW 10 17 30.03 1017 10 16 0.00 0.00
6:55 pm 18:55 Sunny 77 25.1 42 5.6 29 29 SSW 10 17 30.03 1017 10 16 0.00 0.00
7:15 pm 19:15 Sunny 75 24.1 42 5.4 30 30 SW 8 13 30.03 1017 10 16 0.00 0.00
7:35 pm 19:35 Sunny 74 23.6 42 5.5 31 31 SW 8 13 30.03 1017 10 16 0.00 0.00
7:55 pm 19:55 Sunny 74 23.6 42 5.6 31 31 SW 6 9 30.03 1017 10 16 0.00 0.00
8:15 pm 20:15 Sunny 74 23.6 47 8.4 38 38 SW 6 9 30.06 1018 10 16 0.00 0.00
8:35 pm 20:35 Clear 69 20.8 46 7.6 43 43 SW 5 7 30.06 1018 10 16 0.00 0.00
8:55 pm 20:55 Clear 67 19.5 51 10.4 56 56 Calm 30.06 1018 10 16 0.00 0.00
9:15 pm 21:15 Clear 64 17.8 51 10.4 62 62 Calm 30.06 1018 10 16 0.00 0.00
9:35 pm 21:35 Clear 62 16.6 52 11 70 70 Calm 30.06 1018 10 16 0.00 0.00
9:55 pm 21:55 Clear 62 16.6 52 11 70 70 Calm 30.06 1018 10 16 0.00 0.00
10:15 pm 22:15 Clear 61 16 51 10.6 71 71 Calm 30.12 1020 10 16 0.00 0.00
10:35 pm 22:35 Clear 60 15.3 51 10.4 73 73 Calm 30.12 1020 10 16 0.00 0.00
10:55 pm 22:55 Clear 60 15.3 50 10.1 71 71 Calm 30.12 1020 10 16 0.00 0.00
11:15 pm 23:15 Clear 60 15.3 51 10.8 75 75 Calm 30.09 1019 10 16 0.00 0.00
11:35 pm 23:35 Clear 58 14.2 50 9.9 76 76 Calm 30.09 1019 10 16 0.00 0.00
11:55 pm 23:55 Clear 57 13.8 50 10.1 79 79 Calm 30.09 1019 10 16 0.00 0.00

Powered by AerisWeather